Вернуться в каталог

SL-24 R/B

АктивенPO
NORAD 31123·ROCKET BODY·🇷🇺 Russia

Запущен Apr 17, 2007 с Baikonur Cosmodrome

Loading…

Ближайшие Пролёты (ближайшие 24 часа)

TLE

СвежийSource: Space-Track

Эпоха: Sep 14, 2026, 11:56 UTC

1 31123U 07012G   26257.49755299  .00000063  00000-0  34656-4 0  9999
2 31123  98.0069  93.2083 0310077 144.9762 247.2049 14.13540106   799

Отслеживайте SL-24 R/B в реальном времени с AllMySat

Download on the App Store